Miscellaneous Local Product
Issued by NWS Hastings, NE

Home | Current Version | Previous Version | Graphics & Text | Print | Product List | Glossary On
Versions: 1 2 3 4 5 6 7 8 9 10 11 12 13 14 15 16 17 18 19 20 21 22 23 24 25 26 27 28 29 30 31 32 33 34 35 36 37 38 39 40 41 42 43 44 45 46 47 48 49 50
000
AXUS43 KGID 201202
MISGRI

GID CWA HOURLY WEATHER ROUNDUP
NATIONAL WEATHER SERVICE HASTINGS NE
700 AM CDT SUN MAY 20 2018

NOTE: "FAIR" INDICATES FEW OR NO CLOUDS BELOW 12,000 FEET WITH NO
SIGNIFICANT WEATHER AND/OR OBSTRUCTIONS TO VISIBILITY.

...SOUTH CENTRAL NEBRASKA...

CITY           SKY/WX    TMP DP  RH WIND       PRES   REMARKS
GRAND ISLAND   LGT RAIN  53  52  96 N9        30.12R FOG
KEARNEY        CLOUDY    52  51  97 N13       30.13R FOG
HASTINGS       CLOUDY    53  53 100 N8        30.12R FOG
ORD            CLOUDY    51  51 100 N7        30.14R FOG
YORK           CLOUDY    55  55 100 N8        30.09R FOG
AURORA         CLOUDY    54  54 100 N8        30.11R FOG
LEXINGTON      CLOUDY    50  47  88 N12       30.15S
HOLDREGE       CLOUDY    50  50 100 N14       30.13R FOG
HEBRON         CLOUDY    56  54  93 CALM      30.09R

...NEBRASKA PANHANDLE...

CITY           SKY/WX    TMP DP  RH WIND       PRES   REMARKS
CHADRON        PTCLDY    36  36 100 CALM      30.24R
ALLIANCE       CLOUDY    41  40  96 CALM      30.23R
SCOTTSBLUFF    MOCLDY    43  41  93 NW3       30.24R
SIDNEY         MOCLDY    41  39  93 N5        30.26R

...WESTERN AND NORTH CENTRAL NEBRASKA...

CITY           SKY/WX    TMP DP  RH WIND       PRES   REMARKS
VALENTINE      CLOUDY    48  35  60 N7        30.22R
AINSWORTH      CLOUDY    46  42  85 N5        30.21R
ONEILL         CLOUDY    53  51  93 N7        30.17R
BROKEN BOW     CLOUDY    49  46  90 N12       30.15R
IMPERIAL       CLOUDY    46  44  93 NW9       30.22R
NORTH PLATTE   CLOUDY    49  43  80 NW8       30.19R
MCCOOK         CLOUDY    49  45  86 NW10      30.18R

...EASTERN NEBRASKA...

CITY           SKY/WX    TMP DP  RH WIND       PRES   REMARKS
NORFOLK        CLOUDY    51  50  96 NE10      30.12R
SO SIOUX CITY  CLOUDY    53  48  83 NE12      30.12R
TEKAMAH        CLOUDY    54  52  93 N12       30.10R
COLUMBUS       CLOUDY    54  53  97 N15       30.11R FOG
ALBION         DRIZZLE   53  52  96 NE10      30.13R
OMAHA EPPLEY   CLOUDY    57  53  86 NE13      30.08R
OFFUTT AFB     CLOUDY    57  55  94 NE7       30.07R
MILLARD        CLOUDY    58  55  92 CALM      30.09R FOG
LINCOLN        CLOUDY    57  55  93 N5        30.09R FOG
NEBRASKA CITY  CLOUDY    57  57 100 NE8       30.07R FOG
BEATRICE       CLOUDY    59  56  92 E5        30.08R FOG
FALLS CITY     CLOUDY    58  56  93 N3        30.05R

...NORTHERN KANSAS...

CITY           SKY/WX    TMP DP  RH WIND       PRES   REMARKS
GOODLAND       CLOUDY    45  43  93 NW13      30.21S
HILL CITY      CLOUDY    51  49  92 NW10G22   30.15R
NORTON         CLOUDY    50  46  87 NW12      30.13R
PHILLIPSBURG   CLOUDY    54  54 100 NW6       30.12F
SMITH CENTER     N/A     52  50  93 NW6       30.12R
HAYS           CLOUDY    52  49  89 NW13      30.12R
RUSSELL        CLOUDY    52  52 100 NW9       30.11R
CONCORDIA      CLOUDY    54  53  97 NW8       30.09R FOG
SALINA         CLOUDY    58  55  90 NW12      30.09R
TOPEKA         CLOUDY    64  62  93 NW6       30.03R



USA.gov is the U.S. government's official web portal to all federal, state and local government web resources and services.